Weather History for Walhalla, ND

Change the Weather History Date:

Wednesday, February 6, 2013

  Actual Average (KGAF) Record (KGAF)
Temperature  
Mean Temperature 8 °F -  
Max Temperature 14 °F 19 °F 46 °F (1990)
Min Temperature 3 °F 0 °F -32 °F (1959)
Degree Days  
Heating Degree Days 56    
Moisture  
Dew Point 8 °F    
Average Humidity 94    
Maximum Humidity 100    
Minimum Humidity 79    
Precipitation  
Precipitation 0.90 in - - ()
Sea Level Pressure  
Sea Level Pressure 30.01 in    
Wind  
Wind Speed 8 mph (NE)    
Max Wind Speed 15 mph    
Max Gust Speed -    
Visibility 7 miles    
Events Snow    
Averages and records for this station are not official NWS values.
T = Trace of Precipitation, MM = Missing Value Source: NWS Daily Summary

Daily Weather History Graph

Daily Weather History Graph

Search for Another Location

Airport:

Trip Planner

Search our weather history database for the weather conditions in past years. The results will help you decide how hot, cold, wet, or windy it might be!

Date:

Astronomy

Feb. 06, 2013 Rise Set
Actual Time 7:54 AM CST 5:37 PM CST
Civil Twilight 7:20 AM CST 6:11 PM CST
Nautical Twilight 6:43 AM CST 6:48 PM CST
Astronomical Twilight 6:06 AM CST 7:25 PM CST
Moon 4:49 AM CST (2/6) 1:47 PM CST (2/6)
Length of Visible Light 10h 50m
Length of Day
9h 43m
Waning Crescent, 17% of the Moon is Illuminated
Feb 6
Waning Crescent
Feb 10
New
Feb 17
First Quarter
Feb 25
Full
Mar 4
Last Quarter

Hourly Weather History & Observations

Time (CST) Temp. Windchill Dew Point Humidity Pressure Visibility Wind Dir Wind Speed Gust Speed Precip Events Conditions
12:15 AM 5.0 °F -9.1 °F 1.4 °F 85% 29.93 in 10.0 mi SSE 9.2 mph - N/A   Overcast
12:35 AM 6.8 °F -5.9 °F 1.4 °F 79% 29.94 in - South 8.1 mph - N/A   Overcast
1:15 AM 5.0 °F -6.9 °F 1.4 °F 85% 29.94 in - South 6.9 mph - N/A   Unknown
1:35 AM 6.8 °F -2.0 °F 5.0 °F 92% 29.93 in - South 4.6 mph - N/A   Mostly Cloudy
1:55 AM 8.6 °F 0.1 °F 5.0 °F 85% 29.93 in - SSE 4.6 mph - N/A   Overcast
2:15 AM 8.6 °F 2.0 °F 6.8 °F 92% 29.94 in 10.0 mi East 3.5 mph - N/A   Overcast
2:35 AM 6.8 °F -3.5 °F 5.0 °F 92% 29.92 in 10.0 mi East 5.8 mph - N/A   Overcast
2:55 AM 6.8 °F -5.9 °F 5.0 °F 92% 29.92 in 10.0 mi ESE 8.1 mph - N/A   Overcast
3:15 AM 6.8 °F -5.9 °F 5.0 °F 92% 29.92 in 10.0 mi ESE 8.1 mph - N/A   Overcast
3:35 AM 6.8 °F -6.9 °F 6.8 °F 100% 29.90 in 10.0 mi ESE 9.2 mph - N/A   Overcast
3:55 AM 8.6 °F -3.7 °F 6.8 °F 92% 29.91 in 10.0 mi ESE 8.1 mph - N/A   Overcast
4:15 AM 8.6 °F -4.7 °F 6.8 °F 92% 29.91 in 10.0 mi SE 9.2 mph - N/A   Overcast
4:35 AM 8.6 °F -4.7 °F 6.8 °F 92% 29.91 in 10.0 mi SE 9.2 mph - N/A   Overcast
4:55 AM 8.6 °F -3.7 °F 6.8 °F 92% 29.91 in 10.0 mi SE 8.1 mph - N/A   Overcast
5:15 AM 8.6 °F -3.7 °F 6.8 °F 92% 29.91 in 10.0 mi SE 8.1 mph - N/A   Overcast
5:35 AM 8.6 °F -1.3 °F 6.8 °F 92% 29.91 in 10.0 mi SE 5.8 mph - N/A   Overcast
5:55 AM 8.6 °F -1.3 °F 8.6 °F 100% 29.91 in 10.0 mi SE 5.8 mph - N/A Snow Light Snow
6:15 AM 10.4 °F 0.8 °F 8.6 °F 92% 29.91 in 5.0 mi SE 5.8 mph - N/A Snow Light Snow
6:35 AM 10.4 °F 0.8 °F 8.6 °F 92% 29.91 in 3.0 mi ESE 5.8 mph - N/A Snow Light Snow
6:55 AM 10.4 °F 2.2 °F 10.4 °F 100% 29.91 in 5.0 mi ESE 4.6 mph - 0.01 in Snow Light Snow
7:35 AM 10.4 °F 2.2 °F 10.4 °F 100% 29.91 in 3.0 mi East 4.6 mph - 0.01 in Snow Light Snow
7:55 AM 10.4 °F - 10.4 °F 100% 29.93 in 1.8 mi Calm Calm - 0.04 in Snow Light Snow
8:15 AM 10.4 °F 4.0 °F 10.4 °F 100% 29.93 in 1.5 mi ESE 3.5 mph - 0.01 in Snow Light Snow
8:35 AM 10.4 °F 2.2 °F 10.4 °F 100% 29.92 in - East 4.6 mph - 0.06 in Snow Heavy Snow
8:55 AM 12.2 °F 2.9 °F 12.2 °F 100% 29.93 in 0.8 mi ENE 5.8 mph - 0.13 in Snow Light Snow
9:15 AM 12.2 °F 6.1 °F 12.2 °F 100% 29.94 in 2.0 mi ENE 3.5 mph - N/A Snow Light Snow
9:35 AM 14.0 °F 6.5 °F 14.0 °F 100% 29.94 in 2.0 mi ESE 4.6 mph - 0.03 in Snow Light Snow
9:55 AM 14.0 °F 5.1 °F 14.0 °F 100% 29.95 in 1.0 mi East 5.8 mph - 0.07 in Snow Light Snow
10:15 AM 14.0 °F 6.5 °F 14.0 °F 100% 29.94 in 0.8 mi East 4.6 mph - 0.05 in Snow Light Snow
10:35 AM 14.0 °F 5.1 °F 14.0 °F 100% 29.95 in 0.8 mi ENE 5.8 mph - 0.11 in Snow Light Snow
10:55 AM 14.0 °F 5.1 °F 14.0 °F 100% 29.95 in 0.5 mi ENE 5.8 mph - 0.21 in Snow Snow
11:15 AM 14.0 °F 5.1 °F 12.2 °F 93% 29.96 in 0.8 mi East 5.8 mph - 0.05 in Snow Light Snow
11:35 AM 14.0 °F 6.5 °F 14.0 °F 100% 29.97 in 0.8 mi ESE 4.6 mph - 0.13 in Snow Light Snow
12:15 PM 14.0 °F 8.2 °F 14.0 °F 100% 29.97 in - ENE 3.5 mph - 0.05 in Snow Heavy Snow
12:35 PM 14.0 °F 6.5 °F 14.0 °F 100% 29.97 in 0.8 mi NE 4.6 mph - 0.14 in Snow Light Snow
12:55 PM 14.0 °F 3.9 °F 14.0 °F 100% 29.97 in 0.8 mi NE 6.9 mph - 0.28 in Snow Light Snow
1:15 PM 14.0 °F 2.9 °F 14.0 °F 100% 29.98 in 1.8 mi NNE 8.1 mph - 0.01 in Snow Light Snow
1:35 PM 14.0 °F 2.9 °F 14.0 °F 100% 29.97 in 3.0 mi NNE 8.1 mph - 0.02 in Snow Light Snow
1:55 PM 14.0 °F 1.2 °F 12.2 °F 93% 29.97 in 5.0 mi NNE 10.4 mph - 0.03 in Snow Light Snow
2:15 PM 14.0 °F 2.0 °F 12.2 °F 93% 29.98 in 10.0 mi NNE 9.2 mph - N/A Snow Light Snow
2:35 PM 14.0 °F 0.5 °F 12.2 °F 93% 29.97 in 10.0 mi NNE 11.5 mph - N/A   Overcast
2:55 PM 12.2 °F -1.8 °F 10.4 °F 92% 29.98 in 10.0 mi NNE 11.5 mph - N/A   Mostly Cloudy
3:15 PM 12.2 °F -1.8 °F 10.4 °F 92% 29.99 in 10.0 mi NNE 11.5 mph - N/A   Mostly Cloudy
3:35 PM 10.4 °F -3.3 °F 10.4 °F 100% 30.01 in 10.0 mi North 10.4 mph - N/A   Mostly Cloudy
3:55 PM 10.4 °F -4.1 °F 8.6 °F 92% 30.02 in 10.0 mi North 11.5 mph - N/A   Mostly Cloudy
4:15 PM 10.4 °F -2.4 °F 8.6 °F 92% 30.03 in 10.0 mi North 9.2 mph - N/A   Mostly Cloudy
4:35 PM 10.4 °F -6.0 °F 10.4 °F 100% 30.04 in 10.0 mi North 15.0 mph - N/A   Overcast
4:55 PM 10.4 °F -5.4 °F 8.6 °F 92% 30.05 in 10.0 mi North 13.8 mph - N/A   Overcast
5:15 PM 8.6 °F -7.7 °F 8.6 °F 100% 30.06 in 10.0 mi North 13.8 mph - N/A   Overcast
5:35 PM 8.6 °F -7.7 °F 8.6 °F 100% 30.07 in 10.0 mi North 13.8 mph - N/A   Overcast
5:55 PM 8.6 °F -7.7 °F 6.8 °F 92% 30.08 in 9.0 mi North 13.8 mph - N/A Snow Light Snow
6:15 PM 6.8 °F -6.9 °F 6.8 °F 100% 30.10 in 10.0 mi NNW 9.2 mph - N/A Snow Light Snow
6:35 PM 6.8 °F -7.8 °F 6.8 °F 100% 30.10 in 10.0 mi NNW 10.4 mph - N/A Snow Light Snow
6:55 PM 6.8 °F -6.9 °F 6.8 °F 100% 30.11 in 10.0 mi NNW 9.2 mph - N/A Snow Light Snow
7:15 PM 6.8 °F -8.6 °F 6.8 °F 100% 30.12 in 10.0 mi NNW 11.5 mph - N/A Snow Light Snow
7:35 PM 6.8 °F -5.9 °F 6.8 °F 100% 30.12 in 10.0 mi NNW 8.1 mph - N/A Snow Light Snow
7:55 PM 8.6 °F -5.5 °F 6.8 °F 92% 30.14 in 10.0 mi NNW 10.4 mph - N/A Snow Light Snow
8:15 PM 6.8 °F -7.8 °F 6.8 °F 100% 30.14 in 10.0 mi NNW 10.4 mph - N/A   Overcast
8:35 PM 6.8 °F -8.6 °F 5.0 °F 92% 30.15 in 10.0 mi NNW 11.5 mph - N/A   Overcast
8:55 PM 6.8 °F -8.6 °F 5.0 °F 92% 30.15 in 10.0 mi NNW 11.5 mph - N/A   Overcast
9:15 PM 6.8 °F -8.6 °F 5.0 °F 92% 30.16 in 10.0 mi North 11.5 mph - N/A   Overcast
9:35 PM 6.8 °F -5.9 °F 5.0 °F 92% 30.16 in 10.0 mi North 8.1 mph - N/A   Overcast
9:55 PM 6.8 °F -8.6 °F 3.2 °F 85% 30.16 in 10.0 mi North 11.5 mph - N/A   Overcast
10:15 PM 5.0 °F -10.0 °F 1.4 °F 85% 30.18 in 10.0 mi North 10.4 mph - N/A   Overcast
10:35 PM 5.0 °F -8.1 °F 1.4 °F 85% 30.18 in 10.0 mi North 8.1 mph - N/A   Overcast
10:55 PM 5.0 °F -9.1 °F 1.4 °F 85% 30.19 in 10.0 mi NNW 9.2 mph - N/A   Overcast
11:15 PM 5.0 °F -6.9 °F 1.4 °F 85% 30.20 in 10.0 mi NNW 6.9 mph - N/A   Overcast
11:35 PM 3.2 °F -7.8 °F -0.4 °F 85% 30.20 in 10.0 mi NNW 5.8 mph - N/A   Mostly Cloudy
11:55 PM 3.2 °F -7.8 °F -0.4 °F 85% 30.21 in 10.0 mi NW 5.8 mph - N/A   Overcast